FW9881 Weather Reports


time (UTC)temp
C
wind
direction
speed
KPH
gust
KPH
rain 1hr
cm
rain 24hr
cm
rain mn
cm
humidity
%
barometer
mb
20260505211833 25 213 6.4 11.3 0.00 0.00 0.00 37 1007.2
20260505210835 26 244 6.4 17.7 0.00 0.00 0.00 37 1006.9
20260505205835 26 222 12.9 29.0 0.00 0.00 0.00 36 1007.0
20260505204933 26 220 11.3 25.7 0.00 0.00 0.00 37 1007.0
20260505204003 25 193 11.3 17.7 0.00 0.00 0.00 37 1007.1
20260505204000 25 218 8.0 20.9 0.00 0.00 0.00 36 1007.1
20260505203533 25 205 8.0 16.1 0.00 0.00 0.00 36 1007.1
20260505202534 25 233 11.3 24.1 0.00 0.00 0.00 35 1007.2
20260505202434 25 194 9.7 29.0 0.00 0.00 0.00 36 1007.2
20260505201434 26 247 6.4 12.9 0.00 0.00 0.00 35 1007.3
20260505200533 26 244 12.9 25.7 0.00 0.00 0.00 35 1007.3
20260505195535 26 203 6.4 11.3 0.00 0.00 0.00 35 1007.3
20260505195435 26 236 9.7 22.5 0.00 0.00 0.00 36 1007.3
20260505194449 25 208 6.4 14.5 0.00 0.00 0.00 36 1007.3
20260505193535 25 223 9.7 20.9 0.00 0.00 0.00 36 1007.5
20260505192534 26 202 12.9 24.1 0.00 0.00 0.00 37 1007.4
20260505192434 26 195 9.7 20.9 0.00 0.00 0.00 37 1007.5
20260505191451 25 259 9.7 20.9 0.00 0.00 0.00 35 1007.6
20260505190535 25 230 9.7 24.1 0.00 0.00 0.00 36 1007.6
20260505185536 26 240 8.0 22.5 0.00 0.00 0.00 36 1007.6
20260505185435 26 191 9.7 27.4 0.00 0.00 0.00 35 1007.6
20260505184433 25 240 8.0 14.5 0.00 0.00 0.00 36 1007.8
20260505183433 26 236 6.4 11.3 0.00 0.00 0.00 35 1008.0
20260505183334 26 222 6.4 14.5 0.00 0.00 0.00 36 1008.1
20260505182336 26 209 14.5 24.1 0.00 0.00 0.00 35 1008.2
20260505181335 26 225 6.4 14.5 0.00 0.00 0.00 35 1008.4
20260505180433 25 241 9.7 19.3 0.00 0.00 0.00 35 1008.4
20260505175433 25 236 9.7 16.1 0.00 0.00 0.00 35 1008.6
20260505174434 25 233 9.7 20.9 0.00 0.00 0.00 35 1008.6
20260505174334 25 171 12.9 37.0 0.00 0.00 0.00 36 1008.5
20260505173334 26 192 11.3 32.2 0.00 0.00 0.00 37 1008.8
20260505172333 25 142 11.3 19.3 0.00 0.00 0.00 36 1008.7
20260505172233 25 173 12.9 29.0 0.00 0.00 0.00 36 1008.8
20260505171235 25 221 6.4 12.9 0.00 0.00 0.00 37 1008.8
20260505170234 25 162 9.7 22.5 0.00 0.00 0.00 38 1009.0
20260505165233 25 244 9.7 14.5 0.00 0.00 0.00 37 1009.1
20260505165135 25 229 6.4 17.7 0.00 0.00 0.00 38 1009.2
20260505164234 25 189 4.8 11.3 0.00 0.00 0.00 37 1009.3
20260505162432 25 175 9.7 22.5 0.00 0.00 0.00 38 1009.7
20260505152449 22 245 8.0 16.1 0.00 0.00 0.00 43 1011.2
20260505151537 21 266 9.7 16.1 0.00 0.00 0.00 45 1011.3
20260505151434 21 255 9.7 20.9 0.00 0.00 0.00 45 1011.4
20260505150434 21 220 11.3 27.4 0.00 0.00 0.00 46 1011.4
20260505140434 20 227 9.7 17.7 0.00 0.00 0.00 51 1011.7
20260505123433 15 191 3.2 8.0 0.00 0.00 0.00 63 1012.1
20260505122335 15 215 1.6 6.4 0.00 0.00 0.00 64 1012.0
20260505121335 15 184 1.6 3.2 0.00 0.00 0.00 62 1012.1
20260505120335 14 229 9.7 20.9 0.00 0.00 0.00 64 1012.1
20260505115334 14 151 1.6 3.2 0.00 0.00 0.00 65 1012.1
20260505114333 13 233 6.4 12.9 0.00 0.00 0.00 68 1012.3
20260505112334 12 236 0.0 3.2 0.00 0.00 0.00 70 1012.0
20260505110433 11 171 3.2 6.4 0.00 0.00 0.00 72 1011.9
20260505100335 11 171 0.0 3.2 0.00 0.00 0.00 70 1011.8
20260505095351 11 195 3.2 4.8 0.00 0.00 0.00 69 1011.8
20260505094433 11 187 3.2 6.4 0.00 0.00 0.00 68 1011.7
20260505094335 11 212 1.6 3.2 0.00 0.00 0.00 69 1011.8
20260505092334 11 158 0.0 1.6 0.00 0.00 0.00 68 1011.8
20260505091333 11 190 1.6 8.0 0.00 0.00 0.00 67 1011.9
20260505090432 11 184 3.2 6.4 0.00 0.00 0.00 67 1011.9
20260505085435 11 220 0.0 0.0 0.00 0.00 0.00 66 1011.8
20260505082533 12 185 0.0 3.2 0.00 0.00 0.00 61 1011.6
20260505081536 12 240 3.2 6.4 0.00 0.00 0.00 58 1011.7
20260505080533 13 197 3.2 6.4 0.00 0.00 0.00 57 1011.6
20260505080432 13 195 3.2 6.4 0.00 0.00 0.00 57 1011.7
20260505075532 14 202 3.2 4.8 0.00 0.00 0.00 56 1011.7
20260505074551 14 226 6.4 11.3 0.00 0.00 0.00 58 1011.6
20260505073535 13 247 3.2 8.0 0.00 0.00 0.00 65 1011.8
20260505072632 10 246 1.6 3.2 0.00 0.00 0.00 70 1011.7
20260505071634 10 187 3.2 3.2 0.00 0.00 0.00 70 1011.8
20260505070634 11 124 0.0 1.6 0.00 0.00 0.00 70 1011.7
20260505065633 10 160 1.6 3.2 0.00 0.00 0.00 70 1011.9
20260505064634 10 223 3.2 8.0 0.00 0.00 0.00 70 1012.0
20260505063633 10 131 4.8 6.4 0.00 0.00 0.00 70 1012.1
20260505062635 10 293 4.8 6.4 0.00 0.00 0.00 70 1012.3
20260505061649 10 270 0.0 0.0 0.00 0.00 0.00 68 1012.4
20260505055751 11 247 0.0 1.6 0.00 0.00 0.00 68 1012.5
20260505055651 11 247 3.2 4.8 0.00 0.00 0.00 69 1012.5
20260505054734 10 112 1.6 3.2 0.00 0.00 0.00 69 1012.5
20260505053734 11 112 3.2 3.2 0.00 0.00 0.00 68 1012.7
20260505052733 11 247 0.0 0.0 0.00 0.00 0.00 66 1012.7
20260505051734 11 202 0.0 3.2 0.00 0.00 0.00 67 1012.7
20260505050733 11 202 0.0 0.0 0.00 0.00 0.00 65 1012.9
20260505041733 12 190 1.6 4.8 0.00 0.00 0.00 62 1012.8
20260505040733 12 183 0.0 3.2 0.00 0.00 0.00 61 1012.6
20260505035741 12 209 3.2 6.4 0.00 0.00 0.00 61 1012.5
20260505034742 12 242 3.2 8.0 0.00 0.00 0.00 59 1012.5
20260505033838 12 230 1.6 4.8 0.00 0.00 0.00 59 1012.4
20260505032840 13 226 4.8 8.0 0.00 0.00 0.00 59 1012.4
20260505031838 13 221 9.7 16.1 0.00 0.00 0.00 58 1012.4
20260505030741 13 186 3.2 9.7 0.00 0.00 0.00 57 1012.4
20260505025740 13 208 6.4 9.7 0.00 0.00 0.00 56 1012.4
20260505024741 13 242 1.6 6.4 0.00 0.00 0.00 56 1012.4
20260505023741 13 160 3.2 6.4 0.00 0.00 0.00 55 1012.4
20260505022755 14 239 9.7 16.1 0.00 0.00 0.00 54 1012.4
20260505021838 14 247 4.8 8.0 0.00 0.00 0.00 54 1012.3
20260505021757 14 186 4.8 9.7 0.00 0.00 0.00 54 1012.3
20260505020739 14 244 8.0 16.1 0.00 0.00 0.00 53 1012.2
20260505020641 14 240 3.2 11.3 0.00 0.00 0.00 53 1012.2
20260505015641 14 246 0.0 4.8 0.00 0.00 0.00 51 1012.3
20260505014739 15 218 6.4 14.5 0.00 0.00 0.00 51 1012.2
20260505011937 15 245 6.4 11.3 0.00 0.00 0.00 47 1011.8
20260505011838 15 249 6.4 12.9 0.00 0.00 0.00 48 1011.8
20260505010839 15 208 3.2 6.4 0.00 0.00 0.00 46 1011.7
20260505005838 16 202 8.0 19.3 0.00 0.00 0.00 43 1011.6
20260505004839 16 236 3.2 4.8 0.00 0.00 0.00 43 1011.2
20260505004740 16 230 1.6 3.2 0.00 0.00 0.00 43 1011.0
20260505003839 16 221 1.6 6.4 0.00 0.00 0.00 42 1011.0
20260505002838 16 194 3.2 4.8 0.00 0.00 0.00 42 1011.0
20260505002739 16 247 3.2 4.8 0.00 0.00 0.00 42 1011.0
20260505002641 16 236 4.8 11.3 0.00 0.00 0.00 42 1011.0
20260505001738 16 232 1.6 4.8 0.00 0.00 0.00 41 1010.8
20260505000739 17 247 1.6 4.8 0.00 0.00 0.00 39 1010.5
20260505000640 17 237 3.2 6.4 0.00 0.00 0.00 39 1010.5
20260504235640 17 240 3.2 6.4 0.00 0.00 0.00 39 1010.4
20260504232638 18 221 3.2 8.0 0.00 0.00 0.00 36 1009.9
20260504230837 18 229 8.0 12.9 0.00 0.00 0.00 35 1009.6
20260504230740 18 240 9.7 16.1 0.00 0.00 0.00 34 1009.5
20260504225840 19 247 4.8 8.0 0.00 0.00 0.00 33 1009.5
20260504224842 19 183 1.6 11.3 0.00 0.00 0.00 34 1009.3
20260504221938 20 249 6.4 12.9 0.00 0.00 0.00 32 1008.9
20260504220939 20 250 11.3 19.3 0.00 0.00 0.00 32 1008.8
20260504215940 20 260 14.5 20.9 0.00 0.00 0.00 33 1008.8
20260504214938 20 227 4.8 11.3 0.00 0.00 0.00 33 1008.8
20260504213939 20 223 6.4 9.7 0.00 0.00 0.00 33 1008.9
20260504213838 20 254 9.7 14.5 0.00 0.00 0.00 33 1008.9
20260504213741 20 247 8.0 16.1 0.00 0.00 0.00 33 1009.0
20260504212740 20 265 9.7 16.1 0.00 0.00 0.00 33 1009.0
20260504212640 20 286 8.0 12.9 0.00 0.00 0.00 33 1009.1
20260504212538 20 200 8.0 14.5 0.00 0.00 0.00 33 1009.0